Location: Buchberg
(46.9333°N, 15.8500°E)
Time: 04:03:41
(UTC+00:00)

Meteor 1-21 - Pass Details

Date: 14 July 2020
Orbit: 845 x 887 km, 81.2° (Epoch: 11 August)

Event Time Altitude Azimuth Distance (km) Brightness Sun altitude
Rises 02:29:16 0° 349° (NNW) 3,491 7.9 -7.1°
Reaches altitude 10° 02:31:43 10° 350° (N) 2,552 7.2 -6.8°
Maximum altitude 02:37:33 84° 80° (E) 897 4.5 -6.1°
Drops below altitude 10° 02:43:22 10° 168° (SSE) 2,545 6.4 -5.3°
Sets 02:45:48 0° 169° (S) 3,480 7.1 -5.0°
